Skip Page Navigation
NASA JPL Caltech
NASA Logo - Jet Propulsion Laboratory + View the NASA Portal
+ Near-Earth Object (NEO) Program
Search JPL
JPL Home Earth Solar System Stars & Galaxies Technology
JPL Solar System Dynamics
BODIES ORBITS EPHEMERIDES TOOLS PHYSICAL DATA DISCOVERY FAQ SITE MAP
JPL Small-Body Database Browser
Search: [ help ]  
17692 (1997 CX27)
Classification: Main-belt Asteroid          SPK-ID: 2017692
Ephemeris | Orbit Diagram | Orbital Elements | Physical Parameters | Discovery Circumstances | Close-Approach Data ]

[ show orbit diagram ]
Orbital Elements at Epoch 2457000.5 (2014-Dec-09.0) TDB
Reference: JPL 16 (heliocentric ecliptic J2000)
 Element Value Uncertainty (1-sigma)   Units 
e .1679127347757362 5.9817e-08  
a 3.114492073815024 3.6593e-08 AU
q 2.591529192263389 1.89e-07 AU
i 5.772409006010269 5.632e-06 deg
node 136.4692517034299 6.4988e-05 deg
peri 270.6629668333 6.7783e-05 deg
M 159.743982469475 2.3452e-05 deg
tp 2456109.656781343563
(2012-Jul-01.15678134)
0.00012051 JED
period 2007.609637362081
5.50
3.5381e-05
9.687e-08
d
yr
n .1793177285565463 3.1602e-09 deg/d
Q 3.637454955366659 4.2737e-08 AU
  Orbit Determination Parameters
   # obs. used (total)      1023  
   data-arc span      8066 days (22.08 yr)  
   first obs. used      1993-05-23  
   last obs. used      2015-06-23  
   planetary ephem.      DE431  
   SB-pert. ephem.      SB431-BIG16  
   condition code      0  
   fit RMS      .53417  
   data source      ORB  
   producer      Otto Matic  
   solution date      2015-Jul-06 12:21:23  

Additional Information
 Earth MOID = 1.60908 AU 
 T_jup = 3.188 
[ show covariance matrix ]

Ephemeris | Orbit Diagram | Orbital Elements | Physical Parameters | Discovery Circumstances | Close-Approach Data ]

Physical Parameter Table
Parameter Symbol Value Units Sigma Reference Notes
absolute magnitude H 13.4 mag n/a MPO302173  

17692 (1997 CX27)          Discovered 1997-Feb-06 by Beijing Schmidt CCD Asteroid Program at Xinglong
Reference: 20001013/Numbers.arcLast Updated: 2004-04-19

[ show close-approach data ]
Alternate Designations
 1997 CX27 = 1998 HG63 
Ephemeris | Orbit Diagram | Orbital Elements | Physical Parameters | Discovery Circumstances | Close-Approach Data ]
ABOUT SSD CREDITS/AWARDS PRIVACY/COPYRIGHT GLOSSARY LINKS
FirstGov 2015-Jul-29 15:57 UT
(server date/time)  
NASA Home Page
Site Manager:   Ryan S. Park
Webmaster  Alan B. Chamberlin